Terminal Aerodrome Forecast
Issued by NWS Shreveport, LA

Home | Current Version | Previous Version | Text Only | Print | Product List | Glossary On
Versions: 1 2 3 4 5 6 7 8 9 10 11 12 13 14
000
FTUS44 KSHV 291200 AAA
TAFSHV
TAF AMD
KSHV 291251Z 2913/3012 21010KT P6SM SCT008
      TEMPO 2913/2914 BKN008
     FM291700 29010KT P6SM BKN250
     FM292200 34012KT P6SM BKN150=

USA.gov is the U.S. government's official web portal to all federal, state and local government web resources and services.